Voltar ao catálogo

DELTA 1 DEB

AtivoSSO
NORAD 8959·DEBRIS·🇺🇸 United States

Lançado Jan 22, 1975 de Vandenberg Space Force Base

Loading…

Próximas Passagens (próximas 24 horas)

TLE

AtualizadoSource: Space-Track

Época: Sep 14, 2026, 09:54 UTC

1 08959U 75004AR  26257.41269645  .00000276  00000-0  86141-4 0  9995
2 08959  98.6936 234.4198 0063102 153.8103 206.6303 14.47550955655414

Acompanhe DELTA 1 DEB em tempo real com AllMySat

Download on the App Store